Regional Weather Roundup
Issued by NWS Kansas City/Pleasant Hill, MO

Home | Current Version | Previous Version | Text Only | Print | Product List | Glossary On
Versions: 1 2 3 4 5 6 7 8 9 10 11 12 13 14 15 16 17 18 19 20 21 22 23 24 25 26 27 28
000
ASUS43 KEAX 230210
RWREAX

WEATHER ROUNDUP FOR EASTERN KANSAS AND NORTHWEST MISSOURI
NATIONAL WEATHER SERVICE KANSAS CITY/PLEASANT HILL MO
900 PM CDT TUE MAY 22 2018

KSZ040-057-103>105-MOZ028-029-037-043-230300-
...KANSAS CITY METROPOLITAN AREA...

CITY           SKY/WX    TMP DP  RH WIND       PRES   REMARKS
K.C. INTL      PTCLDY    75  63  66 SE7       30.00R
K.C. DOWNTOWN  CLEAR     81  63  54 SE5       29.98R
LEES SUMMIT    CLEAR     77  66  68 SE5       30.01R
OLATHE - IXD   PTCLDY    77  64  64 SE7       30.00R
OLATHE - OJC   PTCLDY    75  65  70 SE5       30.00R
LAWRENCE       CLOUDY    75  66  73 SE6       29.98R

$$

MOZ001>008-011>017-020>025-030>033-038>040-044>046-053-054-230300-
...NORTHERN AND CENTRAL MISSOURI...

CITY           SKY/WX    TMP DP  RH WIND       PRES   REMARKS
ST. JOSEPH     CLEAR     77  64  64 SE8       29.98R
MOSBY          CLEAR     77  61  57 S3        29.99S
WARRENSBURG    CLEAR     73  63  68 CALM      30.01R
WHITEMAN AFB   PTCLDY    75  64  70 SE3       29.97R
CLINTON        CLOUDY    75  64  69 SE5       30.01R
SEDALIA        CLEAR     75  68  78 SE5       30.02S
WARSAW         NOT AVBL
CHILLICOTHE      N/A     75  62  64 S3        30.01R
KIRKSVILLE     CLEAR     72  63  73 SE6       30.04R

$$

MOZ041-047>049-056>058-063>065-088>090-097-230300-
...EASTERN AND SOUTHERN MISSOURI...

CITY           SKY/WX    TMP DP  RH WIND       PRES   REMARKS
ST. LOUIS INTL PTCLDY    79  63  57 NE6       30.02R
SPIRIT OF STL  PTCLDY    74  68  81 CALM      30.01R
COLUMBIA       CLEAR     75  64  68 E5        30.03R
JEFFERSON CITY CLEAR     76  66  71 CALM      30.01R
ROLLA          FAIR      72  63  73 E3        30.04R
OSAGE BEACH    FAIR      68  66  93 CALM      30.03R
SPRINGFIELD    PTCLDY    75  67  76 E5        30.02R
BRANSON        MOCLDY    72  66  83 S8        30.06R
JOPLIN         PTCLDY    77  67  71 SE6       30.00R
WEST PLAINS    PTCLDY    77  69  76 S3        30.05R

$$

IAZ060-094-KSZ022-034>040-054-083-096-NEZ052-066-093-230300-
...KANSAS...SOUTHEAST NEBRASKA AND IOWA...

CITY           SKY/WX    TMP DP  RH WIND       PRES   REMARKS
TOPEKA         CLOUDY    76  68  76 E7        29.97R
MANHATTAN      CLEAR     78  65  63 S6        29.95R
EMPORIA        CLOUDY    74  66  76 SE6       29.97S
CHANUTE        FAIR      76  68  76 SE5       29.98S
WICHITA        FAIR      78  64  61 SE8       29.96R
OMAHA          PTCLDY    79  63  57 SE14      29.93R
LINCOLN        CLEAR     79  62  56 S10       29.93R
FALLS CITY     CLEAR     80  61  52 S8        29.96R
LAMONI         CLEAR     74  63  68 E3        30.01R
DES MOINES     MOCLDY    76  64  66 SE6       30.00R

$$





USA.gov is the U.S. government's official web portal to all federal, state and local government web resources and services.